Regional Weather Roundup
Issued by NWS

Home | Current Version | Previous Version | Text Only | Print | Product List | Glossary Off
Versions: 1 2 3 4 5 6 7 8 9 10 11 12 13 14 15 16 17 18 19 20 21 22 23 24 25 26 27 28 29 30 31 32 33 34 35 36 37 38 39 40 41 42 43 44 45 46 47 48 49 50

000
ASUS43 KBIS 261910
RWRND

NORTH DAKOTA REGIONAL WEATHER ROUNDUP
NATIONAL WEATHER SERVICE BISMARCK ND
200 PM CDT TUE MAY 26 2015

NOTE: "FAIR" INDICATES FEW OR NO CLOUDS BELOW 12,000 FEET WITH NO
SIGNIFICANT WEATHER AND/OR OBSTRUCTIONS TO VISIBILITY.


NDZ001>003-009>011-017-262000-
NORTHWEST NORTH DAKOTA

CITY           SKY/WX    TMP DP  RH WIND       PRES   REMARKS
WILLISTON      SUNNY     78  39  24 SW10      29.91F
MINOT          MOSUNNY   81  43  26 NW13      29.85F
MINOT AFB      SUNNY     83  43  24 W12       29.84F
$$

NDZ018>021-031>035-040>046-262000-
SOUTHWEST NORTH DAKOTA

CITY           SKY/WX    TMP DP  RH WIND       PRES   REMARKS
BISMARCK       SUNNY     79  48  33 NW10      29.89F
DICKINSON      SUNNY     75  41  29 SE9       29.92F
GARRISON         N/A     79  44  28 W12       29.88F
HETTINGER ARPT SUNNY     72  47  40 SW7       29.96F
$$

NDZ004>008-012>016-024-026-027-054-262000-
NORTHEAST NORTH DAKOTA

CITY           SKY/WX    TMP DP  RH WIND       PRES   REMARKS
GRAND FORKS    MOSUNNY   83  49  30 N5        29.76F
GRND FRKS AFB  SUNNY     82  46  28 N7        29.76F
DEVILS LAKE    SUNNY     81  41  24 N13       29.80F
$$

NDZ022-023-025-028>030-036>039-047>053-262000-
SOUTHEAST NORTH DAKOTA

CITY           SKY/WX    TMP DP  RH WIND       PRES   REMARKS
FARGO          PTSUNNY   74  57  55 S9        29.80F
JAMESTOWN      MOSUNNY   81  49  32 N12G18    29.81F
$$




USA.gov is the U.S. government's official web portal to all federal, state and local government web resources and services.